Regional Weather Roundup
Issued by NWS Wilmington, NC

Home | Current Version | Previous Version | Text Only | Print | Product List | Glossary On
Versions: 1 2 3 4 5 6 7 8 9 10 11 12 13 14 15 16 17 18 19 20 21 22 23 24 25 26 27
000
ASUS42 KILM 181313
RWRILM
RWRILM
REGIONAL HOURLY WEATHER ROUNDUP
NATIONAL WEATHER SERVICE WILMINGTON NC
900 AM EDT WED OCT 18 2017

NOTE: "FAIR" INDICATES FEW OR NO CLOUDS BELOW 12,000 FEET WITH NO
SIGNIFICANT WEATHER AND/OR OBSTRUCTIONS TO VISIBILITY.

...............WFO WILMINGTON COUNTY WARNING AREA...............

......COASTAL NC AND SC COUNTIES......

CITY           SKY/WX    TMP DP  RH WIND       PRES   REMARKS
WILMINGTON     SUNNY     54  48  80 NE7       30.33R
N MYRTLE BEACH SUNNY     54  47  77 N13       30.32R
MYRTLE BEACH   PTSUNNY   56  48  74 NE15      30.33R

......INLAND NC AND SC COUNTIES.......

CITY           SKY/WX    TMP DP  RH WIND       PRES   REMARKS
LUMBERTON      SUNNY     49  45  86 NE9       30.36R
ELIZABETHTOWN  NOT AVBL
WHITEVILLE     SUNNY     49  44  83 N3        30.34R
FLORENCE       SUNNY     49  43  80 NE8       30.36R
DARLINGTON     SUNNY     47  43  86 N7        30.37R
KINGSTREE      FAIR      50  45  81 NE3       30.34R
HARTSVILLE     FAIR      50  41  71 N3        30.36R
BENNETTSVILLE  FAIR      50  46  87 N3        30.37R
CONWAY         FAIR      52  46  82 N7        30.34R HAZE
GEORGETOWN     FAIR      52  50  93 N9        30.32R
MARION         FAIR     N/A N/A N/A NE7       30.36R

....................REST OF NORTH CAROLINA......................

.........EASTERN NC.........

CITY           SKY/WX    TMP DP  RH WIND       PRES   REMARKS
CAPE HATTERAS  SUNNY     66  54  65 NE9       30.32R
JACKSONVILLE   SUNNY     52  48  86 N8        30.35R
MOREHEAD CITY  SUNNY     61  55  81 N14       30.32R
KENANSVILLE    SUNNY     48  45  87 N6        30.37R FOG
NEW BERN       SUNNY     53  50  89 N10       30.36R
ELIZABETH CITY SUNNY     57  52  83 N8        30.37R

.........CENTRAL NC.........

CITY           SKY/WX    TMP DP  RH WIND       PRES   REMARKS
RALEIGH DURHAM MOSUNNY   46  44  93 CALM      30.39R
ROCKY MOUNT    SUNNY     48  45  89 N3        30.39R
ROANOKE RAPIDS NOT AVBL
FAYETTEVILLE   SUNNY     49  45  86 NE8       30.37R
HOFFMAN        SUNNY     45  42  91 CALM      30.37R

.........WESTERN NC.........

CITY           SKY/WX    TMP DP  RH WIND       PRES   REMARKS
CHARLOTTE      MOSUNNY   51  44  77 N5        30.38R
GREENSBORO     MOSUNNY   48  41  76 CALM      30.39R
HICKORY        NOT AVBL
BOONE          NOT AVBL
ASHEVILLE      NOT AVBL

.....................REST OF SOUTH CAROLINA.....................

.........EASTERN SC.........

CITY           SKY/WX    TMP DP  RH WIND       PRES   REMARKS
CHARLESTON     SUNNY     55  47  74 NE13      30.30R
BEAUFORT MCAS  SUNNY     58  47  66 MISG      30.30R
HILTON HEAD    SUNNY     61  46  59 NE12G21     N/A

.........CENTRAL SC.........

CITY           SKY/WX    TMP DP  RH WIND       PRES   REMARKS
COLUMBIA       MOSUNNY   52  45  77 NE5       30.35R
ORANGEBURG     SUNNY     51  42  71 NE8       30.33S
SUMTER SHAW    SUNNY     50  43  76 NE8       30.32S

.........WESTERN SC.........

CITY           SKY/WX    TMP DP  RH WIND       PRES   REMARKS
GREENVILLE     NOT AVBL
ROCK HILL      SUNNY     50  48  93 N3        30.38R
ANDERSON       SUNNY     51  45  79 NE7       30.36R
CLEMSON        NOT AVBL
GREENWOOD      SUNNY     46  44  93 N5        30.38


...................COASTAL AND OFFSHORE REPORTS..................

................LOCAL PIERS AND NC RESERVE................


STATION/POSITION TIME  SKY/WX   TEMP    WIND        PRES    VSBY
                                AIR SEA DIR/SP/G
                 (UTC)          (F)     (DEG/KT/KT) (MB)    (MI)
JOHNY MRCER PIER 1248            56 74   30/ 10/ 12 1026.0R
NC RESRV MASNBRO 1145            52      20/  1     1026.0
OCEAN CREST PIER NOT AVBL
SPRINGMAID  PIER 1248                               1025.8R


................COASTAL AND OFFSHORE BUOYS................


STATION/POSITION TIME  SKY/WX   TEMP    WIND        PRES    VSBY
                                AIR SEA DIR/SP/G
                 (UTC)          (F)     (DEG/KT/KT) (MB)    (MI)
DIMNDSHOAL 41025 1250            68 81   20/ 19/ 23 1025.4R
WVE H/P(F/S)=  6/ 9 SWL H/P/D(F/S/D)=  3/100/ 9

CAPE LOOKOUT     1300            62     360/ 12/ 14 1026.0R
ONSLOW BAY 41036 NOT AVBL
ONSLOW BAY 41064 1208            66      40/ 21/ 27 1024.7R
ONSLOW BAY 41159 NOT AVBL
MASNBO INL 41110 1259               74                N/A
WVE H/P(F/S)=  5/10 SWL H/P/D(F/S/D)=  2/130/11

WILM HARBR 41108 1300               75                N/A
WVE H/P(F/S)=  4/10 SWL H/P/D(F/S/D)=  2/150/11

27SE WRITB 41037 1208            65 77   60/ 17/ 23 1024.9R
FRYING PAN 41013 1300            69 76   30/ 19/ 25 1024.5
SUNST NRSH 41024 1208            55 74   40/ 16/ 19 1025.7R
CAPRS NRSH 41029 1208            58 74   20/ 17/ 25 1024.2R
EDISTO     41004 1300            71 80   30/ 19/ 25 1023.5


..........OFFSHORE BUOYS BEYOND 100 NM OFFSHORE...........
.....IN A TRIANGLE---HAT TO BERMUDA TO BAHAMAS TO HAT.....


STATION/POSITION TIME  SKY/WX   TEMP    WIND        PRES    VSBY
                                AIR SEA DIR/SP/G
                 (UTC)          (F)     (DEG/KT/KT) (MB)    (MI)
150E HAT   41001 NOT AVBL
W BERMUDA  41048 1300            75 79   60/ 23/ 27 1019.9
ATLANTIC S 41049 1250            77 81  190/ 19/ 23 1020.6R
WVE H/P(F/S)=  6/ 8 SWL H/P/D(F/S/D)=  3/110/ 8

E BAHAMAS  41046 1300            81 82  130/ 12/ 14 1018.2
NE BAHAMAS 41047 1300            77 82   80/  6/  8 1018.1
120E CANVRL41010 NOT AVBL

END




USA.gov is the U.S. government's official web portal to all federal, state and local government web resources and services.